Weather History for KIFP - November, 2013

Change the Weather History Date:

Wednesday, November 13, 2013

  Actual Average Record
Temperature  
Mean Temperature 70 °F -  
Max Temperature 82 °F 71 °F 87 °F (1999)
Min Temperature 57 °F 52 °F 46 °F (1993)
Cooling Degree Days 4    
Growing Degree Days 20 (Base 50)    
Moisture  
Dew Point 25 °F    
Average Humidity 19    
Maximum Humidity 29    
Minimum Humidity 10    
Precipitation  
Precipitation 0.00 in - - ()
Sea Level Pressure  
Sea Level Pressure 30.06 in    
Wind  
Wind Speed 4 mph (NNE)    
Max Wind Speed 16 mph    
Max Gust Speed -    
Visibility 10 miles    
Events      
Averages and records for this station are not official NWS values.
T = Trace of Precipitation, MM = Missing Value Source: NWS Daily Summary

Daily Weather History Graph

Daily Weather History Graph

Search for Another Location

Airport or City:

Trip Planner

Search our weather history database for the weather conditions in past years. The results will help you decide how hot, cold, wet, or windy it might be!

Date:

Astronomy

Nov. 13, 2013 Rise Set
Actual Time 7:11 AM MST 5:33 PM MST
Civil Twilight 6:44 AM MST 6:00 PM MST
Nautical Twilight 6:13 AM MST 6:30 PM MST
Astronomical Twilight 5:43 AM MST 7:00 PM MST
Moon 3:15 PM MST (11/13) 3:16 AM MST (11/13)
Length of Visible Light 11h 15m
Length of Day
10h 22m
Waxing Gibbous, 85% of the Moon is Illuminated
Nov 13
Waxing Gibbous
Nov 17
Full
Nov 25
Last Quarter
Dec 2
New
Dec 9
First Quarter

Hourly Weather History & Observations

Time (MST) Temp. Dew Point Humidity Pressure Visibility Wind Dir Wind Speed Gust Speed Precip Events Conditions
12:15 AM 75.2 °F 21.2 °F 13% 30.11 in 10.0 mi NNE 6.9 mph - N/A   Clear
12:35 AM 73.4 °F 26.6 °F 18% 30.11 in 10.0 mi North 3.5 mph - N/A   Clear
12:55 AM 71.6 °F 26.6 °F 19% 30.11 in 10.0 mi Calm Calm - N/A   Clear
1:15 AM 71.6 °F 26.6 °F 19% 30.11 in 10.0 mi NNE 3.5 mph - N/A   Clear
1:35 AM 71.6 °F 28.4 °F 20% 30.11 in 10.0 mi NNE 4.6 mph - N/A   Clear
1:55 AM 69.8 °F 32.0 °F 25% 30.11 in 10.0 mi North 4.6 mph - N/A   Clear
2:15 AM 68.0 °F 28.4 °F 23% 30.11 in 10.0 mi NNE 6.9 mph - N/A   Clear
2:35 AM 68.0 °F 28.4 °F 23% 30.11 in 10.0 mi NNE 3.5 mph - N/A   Clear
2:55 AM 68.0 °F 28.4 °F 23% 30.11 in 10.0 mi Calm Calm - N/A   Clear
3:15 AM 66.2 °F 28.4 °F 24% 30.11 in 10.0 mi Calm Calm - N/A   Clear
3:35 AM 66.2 °F 30.2 °F 26% 30.10 in 10.0 mi Calm Calm - N/A   Clear
3:55 AM 64.4 °F 28.4 °F 26% 30.11 in 10.0 mi Calm Calm - N/A   Clear
4:15 AM 64.4 °F 26.6 °F 24% 30.11 in 10.0 mi SSW 4.6 mph - N/A   Clear
4:35 AM 60.8 °F 26.6 °F 27% 30.11 in 10.0 mi SSW 3.5 mph - N/A   Clear
4:55 AM 59.0 °F 26.6 °F 29% 30.12 in 10.0 mi SE 3.5 mph - N/A   Clear
5:15 AM 59.0 °F 26.6 °F 29% 30.12 in 10.0 mi ESE 3.5 mph - N/A   Clear
5:35 AM 59.0 °F 24.8 °F 27% 30.11 in 10.0 mi East 4.6 mph - N/A   Clear
5:55 AM 60.8 °F 23.0 °F 23% 30.11 in 10.0 mi North 3.5 mph - N/A   Clear
6:15 AM 60.8 °F 23.0 °F 23% 30.12 in 10.0 mi Calm Calm - N/A   Clear
6:35 AM 60.8 °F 23.0 °F 23% 30.12 in 10.0 mi Calm Calm - N/A   Clear
6:55 AM 59.0 °F 24.8 °F 27% 30.12 in 10.0 mi Calm Calm - N/A   Clear
7:15 AM 59.0 °F 23.0 °F 25% 30.12 in 10.0 mi Calm Calm - N/A   Clear
7:35 AM 57.2 °F 23.0 °F 27% 30.13 in 10.0 mi Calm Calm - N/A   Clear
7:55 AM 59.0 °F 23.0 °F 25% 30.13 in 10.0 mi Calm Calm - N/A   Clear
8:15 AM 60.8 °F 24.8 °F 25% 30.13 in 10.0 mi Calm Calm - N/A   Clear
8:35 AM 60.8 °F 24.8 °F 25% 30.14 in 10.0 mi Calm Calm - N/A   Clear
8:55 AM 66.2 °F 26.6 °F 23% 30.14 in 10.0 mi Calm Calm - N/A   Clear
9:15 AM 66.2 °F 30.2 °F 26% 30.14 in 10.0 mi North 3.5 mph - N/A   Clear
9:35 AM 66.2 °F 32.0 °F 28% 30.14 in 10.0 mi Calm Calm - N/A   Clear
9:55 AM 68.0 °F 32.0 °F 26% 30.14 in 10.0 mi Calm Calm - N/A   Clear
10:15 AM 71.6 °F 32.0 °F 23% 30.13 in 10.0 mi Calm Calm - N/A   Clear
10:35 AM 73.4 °F 30.2 °F 20% 30.13 in 10.0 mi West 3.5 mph - N/A   Clear
10:55 AM 73.4 °F 28.4 °F 19% 30.12 in 10.0 mi Calm Calm - N/A   Clear
11:15 AM 75.2 °F 28.4 °F 18% 30.11 in 10.0 mi Calm Calm - N/A   Clear
11:35 AM 77.0 °F 24.8 °F 14% 30.10 in 10.0 mi NNE 11.5 mph - N/A   Clear
11:55 AM 78.8 °F 23.0 °F 13% 30.09 in 10.0 mi NNE 11.5 mph - N/A   Clear
12:15 PM 80.6 °F 23.0 °F 12% 30.09 in 10.0 mi North 12.7 mph - N/A   Clear
12:35 PM 80.6 °F 23.0 °F 12% 30.07 in 10.0 mi North 11.5 mph - N/A   Clear
12:55 PM 82.4 °F 23.0 °F 11% 30.06 in 10.0 mi NNE 12.7 mph - N/A   Clear
1:15 PM 82.4 °F 21.2 °F 10% 30.06 in 10.0 mi North 15.0 mph - N/A   Clear
1:35 PM 82.4 °F 21.2 °F 10% 30.05 in 10.0 mi NNE 13.8 mph - N/A   Clear
1:55 PM 82.4 °F 21.2 °F 10% 30.04 in 10.0 mi North 16.1 mph - N/A   Clear
2:15 PM 82.4 °F 23.0 °F 11% 30.03 in 10.0 mi North 12.7 mph - N/A   Clear
2:35 PM 82.4 °F 23.0 °F 11% 30.01 in 10.0 mi North 13.8 mph - N/A   Clear
2:55 PM 82.4 °F 23.0 °F 11% 30.00 in 10.0 mi North 11.5 mph - N/A   Clear
3:15 PM 82.4 °F 23.0 °F 11% 29.99 in 10.0 mi North 11.5 mph - N/A   Clear
3:35 PM 82.4 °F 21.2 °F 10% 29.99 in 10.0 mi North 10.4 mph - N/A   Clear
3:55 PM 82.4 °F 23.0 °F 11% 29.98 in 10.0 mi North 10.4 mph - N/A   Clear
4:15 PM 82.4 °F 23.0 °F 11% 29.98 in 10.0 mi North 9.2 mph - N/A   Clear
4:35 PM 82.4 °F 23.0 °F 11% 29.98 in 9.0 mi North 8.1 mph - N/A   Clear
4:55 PM 82.4 °F 23.0 °F 11% 29.97 in 10.0 mi North 8.1 mph - N/A   Clear
5:15 PM 82.4 °F 23.0 °F 11% 29.97 in 10.0 mi North 6.9 mph - N/A   Clear
5:35 PM 80.6 °F 24.8 °F 13% 29.97 in 10.0 mi NNE 6.9 mph - N/A   Clear
5:55 PM 80.6 °F 21.2 °F 11% 29.98 in 10.0 mi NE 5.8 mph - N/A   Clear
6:15 PM 77.0 °F 23.0 °F 13% 29.98 in 10.0 mi North 3.5 mph - N/A   Clear
6:35 PM 75.2 °F 21.2 °F 13% 29.98 in 10.0 mi ENE 8.1 mph - N/A   Clear
6:55 PM 75.2 °F 24.8 °F 15% 29.98 in 10.0 mi Calm Calm - N/A   Clear
7:15 PM 75.2 °F 23.0 °F 14% 29.98 in 10.0 mi Calm Calm - N/A   Clear
7:35 PM 73.4 °F 21.2 °F 14% 29.98 in 10.0 mi Calm Calm - N/A   Clear
7:55 PM 71.6 °F 21.2 °F 15% 29.99 in 10.0 mi Calm Calm - N/A   Clear
8:15 PM 68.0 °F 21.2 °F 17% 29.99 in 10.0 mi Calm Calm - N/A   Clear
8:35 PM 69.8 °F 26.6 °F 20% 29.99 in 10.0 mi NNE 4.6 mph - N/A   Clear
8:55 PM 68.0 °F 26.6 °F 21% 29.99 in 10.0 mi North 3.5 mph - N/A   Clear
9:15 PM 68.0 °F 26.6 °F 21% 29.99 in 10.0 mi Calm Calm - N/A   Clear
9:35 PM 68.0 °F 26.6 °F 21% 29.99 in 10.0 mi Calm Calm - N/A   Clear
9:55 PM 68.0 °F 23.0 °F 18% 29.99 in 10.0 mi NNW 3.5 mph - N/A   Clear
10:15 PM 66.2 °F 23.0 °F 19% 29.99 in 10.0 mi North 4.6 mph - N/A   Clear
10:35 PM 66.2 °F 24.8 °F 21% 29.98 in 10.0 mi North 5.8 mph - N/A   Clear
10:55 PM 66.2 °F 24.8 °F 21% 29.99 in 10.0 mi Calm Calm - N/A   Clear
11:15 PM 66.2 °F 26.6 °F 23% 29.99 in 10.0 mi NNE 5.8 mph - N/A   Clear
11:35 PM 66.2 °F 26.6 °F 23% 29.99 in 10.0 mi NNE 4.6 mph - N/A   Clear
11:55 PM 66.2 °F 28.4 °F 24% 29.99 in 10.0 mi Calm Calm - N/A   Clear